TimeCDT,TemperatureF,Dew PointF,Humidity,Sea Level PressureIn,VisibilityMPH,Wind Direction,Wind SpeedMPH,Gust SpeedMPH,PrecipitationIn,Events,Conditions,WindDirDegrees,DateUTC
12:15 AM,87.8,64.4,46,29.99,10.0,SE,9.2,-,N/A,,Clear,130,2013-08-05 05:15:00
12:35 AM,87.8,64.4,46,29.99,10.0,SE,9.2,-,N/A,,Clear,130,2013-08-05 05:35:00
12:55 AM,87.8,64.4,46,29.98,10.0,SSE,9.2,-,N/A,,Clear,150,2013-08-05 05:55:00
1:15 AM,87.8,64.4,46,29.97,10.0,SSE,9.2,-,N/A,,Clear,150,2013-08-05 06:15:00
1:35 AM,87.8,64.4,46,29.96,10.0,SSE,8.1,-,N/A,,Clear,150,2013-08-05 06:35:00
1:55 AM,87.8,64.4,46,29.96,10.0,SSE,15.0,-,N/A,,Clear,160,2013-08-05 06:55:00
2:15 AM,86.0,64.4,48,29.96,10.0,SSE,13.8,17.3,N/A,,Clear,160,2013-08-05 07:15:00
2:35 AM,86.0,64.4,48,29.97,10.0,South,9.2,-,N/A,,Clear,170,2013-08-05 07:35:00
2:55 AM,86.0,64.4,48,29.97,10.0,South,8.1,-,N/A,,Clear,180,2013-08-05 07:55:00
3:15 AM,86.0,64.4,48,29.98,10.0,South,8.1,-,N/A,,Clear,180,2013-08-05 08:15:00
3:35 AM,86.0,66.2,51,29.98,10.0,South,11.5,16.1,N/A,,Clear,190,2013-08-05 08:35:00
3:55 AM,86.0,66.2,51,29.98,10.0,South,11.5,-,N/A,,Clear,190,2013-08-05 08:55:00
4:15 AM,86.0,66.2,51,29.97,10.0,South,8.1,-,N/A,,Clear,190,2013-08-05 09:15:00
4:35 AM,84.2,66.2,55,29.98,10.0,South,10.4,-,N/A,,Mostly Cloudy,190,2013-08-05 09:35:00
4:55 AM,84.2,66.2,55,29.97,10.0,SSW,8.1,-,N/A,,Scattered Clouds,200,2013-08-05 09:55:00
5:15 AM,84.2,66.2,55,29.98,10.0,SSW,6.9,16.1,N/A,,Clear,200,2013-08-05 10:15:00
5:35 AM,84.2,64.4,51,29.98,10.0,SSW,8.1,-,N/A,,Clear,200,2013-08-05 10:35:00
5:47 AM,84.2,68.0,58,29.99,13.0,SSW,4.6,17.3,N/A,,Clear,200,2013-08-05 10:47:00
5:55 AM,84.2,64.4,51,29.98,10.0,SSW,8.1,-,N/A,,Clear,200,2013-08-05 10:55:00
7:47 AM,82.4,68.0,62,30.01,13.0,South,5.8,-,N/A,,Clear,180,2013-08-05 12:47:00
9:47 AM,87.8,66.2,49,30.02,13.0,SW,6.9,-,N/A,,Scattered Clouds,230,2013-08-05 14:47:00
10:47 AM,89.6,64.4,43,30.01,15.0,South,9.2,17.3,N/A,,Scattered Clouds,180,2013-08-05 15:47:00
12:47 PM,95.0,62.6,34,29.98,15.0,South,5.8,16.1,N/A,,Partly Cloudy,190,2013-08-05 17:47:00
1:55 PM,96.8,60.8,30,29.95,20.0,South,5.8,-,N/A,,Partly Cloudy,190,2013-08-05 18:55:00
2:50 PM,96.8,60.8,30,29.93,20.0,SSE,4.6,12.7,N/A,,Partly Cloudy,150,2013-08-05 19:50:00
4:49 PM,100.4,60.8,27,29.89,15.0,South,10.4,-,N/A,,Partly Cloudy,170,2013-08-05 21:49:00
5:51 PM,100.4,60.8,27,29.87,15.0,South,12.7,19.6,N/A,,Partly Cloudy,180,2013-08-05 22:51:00
6:55 PM,100.4,59.0,25,29.85,13.0,South,11.5,-,N/A,,Partly Cloudy,170,2013-08-05 23:55:00
7:58 PM,98.6,59.0,27,29.86,20.0,South,10.4,-,N/A,,Clear,180,2013-08-06 00:58:00
8:47 PM,96.8,59.0,28,29.86,20.0,South,9.2,17.3,N/A,,Clear,170,2013-08-06 01:47:00
9:47 PM,93.2,59.0,32,29.88,20.0,SSE,9.2,-,N/A,,Clear,160,2013-08-06 02:47:00
10:15 PM,93.2,53.6,26,29.88,10.0,South,8.1,-,N/A,,Clear,170,2013-08-06 03:15:00
10:35 PM,91.4,53.6,28,29.89,10.0,South,9.2,-,N/A,,Clear,170,2013-08-06 03:35:00
10:55 PM,91.4,53.6,28,29.88,10.0,South,9.2,-,N/A,,Clear,170,2013-08-06 03:55:00
11:15 PM,91.4,53.6,28,29.88,10.0,South,6.9,-,N/A,,Clear,170,2013-08-06 04:15:00
11:35 PM,91.4,53.6,28,29.89,10.0,South,6.9,-,N/A,,Clear,170,2013-08-06 04:35:00
11:55 PM,89.6,53.6,29,29.89,10.0,South,6.9,-,N/A,,Clear,170,2013-08-06 04:55:00